167  
ASUS42 KRAH 020510  
RWRRAH  
NORTH CAROLINA WEATHER ROUNDUP  
NATIONAL WEATHER SERVICE RALEIGH NC  
1200 AM EST FRI DEC 02 2022  
 
NOTE: "FAIR" INDICATES FEW OR NO CLOUDS BELOW 12,000 FEET WITH NO  
SIGNIFICANT WEATHER AND/OR S TO VISIBILITY
.  
 
NCZ001-053-055-056-065-067-020600-  
WESTERN NORTH CAROLINA  
 
CITY SKY/WX TMP DP RH WIND PRES REMARKS
 
ASHEVILLE CLEAR 29 22 75 CALM 30.46F  
JEFFERSON CLEAR 30 15 53 CALM 30.42F  
HICKORY CLEAR 32 26 78 CALM 30.47F  
RUTHERFORDTON NOT AVBL  
MOUNT AIRY CLEAR 28 20 71 CALM 30.49F  

 
 
NCZ021-022-025-041-071-084-088-020600-  
CENTRAL NORTH CAROLINA  
 
CITY SKY/WX TMP DP RH WIND PRES REMARKS
 
CHARLOTTE CLEAR 31 25 78 CALM 30.48F  
GREENSBORO CLEAR 32 22 66 CALM 30.48R  
WINSTON-SALEM CLEAR 32 20 61 CALM 30.49S  
RALEIGH-DURHAM PTCLDY 31 24 75 CALM 30.51R  
FORT BRAGG CLEAR 30 28 93 CALM 30.49S  
FAYETTEVILLE CLEAR 34 26 72 CALM 30.51S  

 
 
NCZ011-015-027-028-043-044-047-080-103-020600-  
NORTHEASTERN NORTH CAROLINA  
 
CITY SKY/WX TMP DP RH WIND PRES REMARKS
 
ROANOKE RAPIDS FAIR 27 27 100 CALM 30.52S  
ROCKY MT-WILSO CLEAR 29 26 89 CALM 30.52S  
GREENVILLE CLEAR 30 30 100 CALM 30.53S  
ELIZABETH CITY NOT AVBL  
MANTEO CLEAR 44 30 57 NE7 30.52S  
CAPE HATTERAS CLEAR 47 35 63 VRB5 30.50S  

 
 
NCZ078-087-090-091-093-098-101-020600-  
SOUTHEASTERN NORTH CAROLINA  
 
CITY SKY/WX TMP DP RH WIND PRES REMARKS
 
LUMBERTON CLEAR 31 28 89 CALM 30.50F  
GOLDSBORO CLEAR 29 24 82 CALM 30.50R  
KINSTON CLEAR 29 27 90 CALM 30.53S  
KENANSVILLE CLEAR 27 27 100 CALM 30.52S  
NEW BERN CLEAR 32 29 88 MISG 30.53F  
CHERRY POINT CLEAR 33 31 92 CALM 30.52F  
BEAUFORT CLEAR 37 31 78 NE5 30.50F WCI 33  
JACKSONVILLE CLEAR 32 29 88 NW3 30.51F  
WILMINGTON CLEAR 34 30 85 NE6 30.50F WCI 29  

 
 
 
 
CLICK HERE TO GO TO PREVIOUS BULLETINS.

The Nexlab NC Page Main Text Page